When you browse on this site, cookies collect data to enhance your experience and personalize the content and advertising you see.
Visit our Privacy Policy to learn more. By continuing to use the site, you agree to this use of cookies and data.
  • In Sweden
  • List of Countries
  • For 7 days
  • Water Temperature
  • Satellite Maps
  • Weather Map
  • Weather Widgets
  • user-avatar
    Login

    Hourly Weather Vozvyshenka

    Today, 22 April, Monday

    Time Temperature Precipitation Wind Pressure Humidity
    00:00 +5°C° 0 mm 1 mps 755 mmHg 51%
    01:00 +5°C° 0 mm 1 mps 755 mmHg 52%
    02:00 +4°C° 0 mm 1 mps 755 mmHg 53%
    03:00 +4°C° 0 mm 1 mps 755 mmHg 54%
    04:00 +4°C° 0 mm 1 mps 755 mmHg 56%
    05:00 +3°C° 0 mm 1 mps 755 mmHg 57%
    06:00 +5°C° 0 mm 1 mps 755 mmHg 54%
    07:00 +6°C° 0 mm 1 mps 755 mmHg 51%
    08:00 +6°C° 0 mm 2 mps 755 mmHg 47%
    09:00 +7°C° 0 mm 2 mps 755 mmHg 44%
    10:00 +8°C° 0 mm 2 mps 755 mmHg 40%
    11:00 +9°C° 0 mm 2 mps 755 mmHg 36%
    12:00 +9°C° 0 mm 2 mps 755 mmHg 36%
    13:00 +10°C° 0 mm 2 mps 755 mmHg 35%
    14:00 +10°C° 0 mm 2 mps 754 mmHg 34%
    15:00 +10°C° 0 mm 2 mps 754 mmHg 34%
    16:00 +10°C° 0 mm 2 mps 754 mmHg 33%
    17:00 +10°C° 0 mm 2 mps 754 mmHg 33%
    18:00 +10°C° 0 mm 2 mps 754 mmHg 35%
    19:00 +9°C° 0 mm 2 mps 754 mmHg 38%
    20:00 +9°C° 0 mm 2 mps 754 mmHg 40%
    21:00 +8°C° 0 mm 2 mps 754 mmHg 42%
    22:00 +8°C° 0 mm 2 mps 753 mmHg 43%
    23:00 +7°C° 0 mm 2 mps 753 mmHg 45%

    Tomorrow, 23 April, Tuesday

    Time Temperature Precipitation Wind Pressure Humidity
    00:00 +7°C° 0 mm 2 mps 753 mmHg 48%
    01:00 +6°C° 0 mm 2 mps 753 mmHg 51%
    02:00 +6°C° 0 mm 2 mps 753 mmHg 54%
    03:00 +5°C° 0 mm 2 mps 752 mmHg 58%
    04:00 +5°C° 0 mm 2 mps 752 mmHg 61%
    05:00 +4°C° 0 mm 2 mps 752 mmHg 65%
    06:00 +4°C° 0 mm 3 mps 752 mmHg 60%
    07:00 +5°C° 0 mm 3 mps 751 mmHg 55%
    08:00 +8°C° 0 mm 3 mps 751 mmHg 51%
    09:00 +9°C° 0 mm 3 mps 751 mmHg 45%
    10:00 +10°C° 0 mm 4 mps 750 mmHg 40%
    11:00 +11°C° 0 mm 4 mps 750 mmHg 35%
    12:00 +12°C° 0 mm 4 mps 750 mmHg 34%
    13:00 +13°C° 0 mm 5 mps 749 mmHg 33%
    14:00 +13°C° 0 mm 5 mps 749 mmHg 32%
    15:00 +13°C° 0 mm 5 mps 749 mmHg 36%
    16:00 +13°C° 0 mm 5 mps 748 mmHg 40%
    17:00 +13°C° 0 mm 5 mps 748 mmHg 44%
    18:00 +12°C° 0 mm 4 mps 748 mmHg 50%
    19:00 +11°C° 0 mm 3 mps 748 mmHg 56%
    20:00 +10°C° 0 mm 2 mps 748 mmHg 62%
    21:00 +10°C° 0.1 mm 2 mps 748 mmHg 64%
    22:00 +9°C° 0.1 mm 3 mps 747 mmHg 67%
    23:00 +9°C° 0.1 mm 3 mps 747 mmHg 69%

    Day after tomorrow, 24 April, Wednesday

    Time Temperature Precipitation Wind Pressure Humidity
    00:00 +9°C° 0.1 mm 3 mps 747 mmHg 71%
    01:00 +8°C° 0.1 mm 3 mps 747 mmHg 73%
    02:00 +8°C° 0.1 mm 3 mps 747 mmHg 75%
    03:00 +7°C° 0 mm 3 mps 747 mmHg 76%
    04:00 +7°C° 0 mm 3 mps 747 mmHg 78%
    05:00 +5°C° 0 mm 3 mps 747 mmHg 80%
    06:00 +6°C° 0 mm 4 mps 747 mmHg 74%
    07:00 +7°C° 0 mm 4 mps 747 mmHg 68%
    08:00 +10°C° 0 mm 4 mps 747 mmHg 62%
    09:00 +11°C° 0 mm 4 mps 747 mmHg 56%
    10:00 +12°C° 0 mm 5 mps 747 mmHg 49%
    11:00 +14°C° 0 mm 5 mps 747 mmHg 42%
    12:00 +14°C° 0.1 mm 5 mps 747 mmHg 42%
    13:00 +14°C° 0.1 mm 4 mps 747 mmHg 42%
    14:00 +14°C° 0.1 mm 4 mps 746 mmHg 42%
    15:00 +14°C° 0.1 mm 4 mps 746 mmHg 43%
    16:00 +14°C° 0.1 mm 3 mps 746 mmHg 43%
    17:00 +14°C° 0.1 mm 2 mps 746 mmHg 43%
    18:00 +13°C° 0.4 mm 2 mps 746 mmHg 50%
    19:00 +12°C° 0.4 mm 2 mps 746 mmHg 57%
    20:00 +10°C° 0.4 mm 2 mps 746 mmHg 63%
    21:00 +10°C° 0.8 mm 2 mps 745 mmHg 68%
    22:00 +9°C° 0.8 mm 2 mps 745 mmHg 72%
    23:00 +8°C° 0.8 mm 2 mps 744 mmHg 77%

    25 April, Thursday

    Time Temperature Precipitation Wind Pressure Humidity
    00:00 +8°C° 0.1 mm 2 mps 744 mmHg 78%
    01:00 +7°C° 0.1 mm 2 mps 744 mmHg 79%
    02:00 +7°C° 0.1 mm 2 mps 743 mmHg 80%
    03:00 +7°C° 0.5 mm 2 mps 743 mmHg 82%
    04:00 +7°C° 0.5 mm 1 mps 743 mmHg 83%
    05:00 +7°C° 0.5 mm 1 mps 743 mmHg 84%
    06:00 +6°C° 1.9 mm 2 mps 743 mmHg 85%
    07:00 +5°C° 1.9 mm 3 mps 743 mmHg 87%
    08:00 +4°C° 1.9 mm 4 mps 743 mmHg 88%
    09:00 +5°C° 0.6 mm 5 mps 743 mmHg 78%
    10:00 +6°C° 0.6 mm 5 mps 743 mmHg 69%
    11:00 +7°C° 0.6 mm 6 mps 744 mmHg 59%
    12:00 +8°C° 0.1 mm 6 mps 744 mmHg 54%
    13:00 +9°C° 0.1 mm 6 mps 744 mmHg 48%
    14:00 +10°C° 0.1 mm 6 mps 744 mmHg 43%
    15:00 +10°C° 0 mm 5 mps 744 mmHg 44%
    16:00 +10°C° 0 mm 5 mps 744 mmHg 45%
    17:00 +11°C° 0 mm 4 mps 744 mmHg 46%
    18:00 +10°C° 0.1 mm 4 mps 745 mmHg 51%
    19:00 +9°C° 0.1 mm 3 mps 745 mmHg 57%
    20:00 +8°C° 0.1 mm 3 mps 745 mmHg 62%
    21:00 +6°C° 1.9 mm 4 mps 745 mmHg 66%
    22:00 +4°C° 1.9 mm 6 mps 745 mmHg 70%
    23:00 +3°C° 1.9 mm 7 mps 745 mmHg 74%

    26 April, Friday

    Time Temperature Precipitation Wind Pressure Humidity
    00:00 +2°C° 0.8 mm 7 mps 745 mmHg 76%
    01:00 +2°C° 0.8 mm 7 mps 746 mmHg 77%
    02:00 +1°C° 0.8 mm 6 mps 746 mmHg 79%
    03:00 -1°C° 0.2 mm 6 mps 746 mmHg 78%
    04:00 0°C° 0.2 mm 5 mps 747 mmHg 77%
    05:00 -1°C° 0.2 mm 5 mps 747 mmHg 76%
    06:00 -1°C° 0 mm 5 mps 747 mmHg 70%
    07:00 0°C° 0 mm 4 mps 748 mmHg 65%
    08:00 0°C° 0 mm 4 mps 748 mmHg 60%
    09:00 0°C° 0 mm 4 mps 748 mmHg 53%
    10:00 +2°C° 0 mm 3 mps 749 mmHg 47%
    11:00 +3°C° 0 mm 3 mps 749 mmHg 41%
    12:00 +4°C° 0 mm 2 mps 748 mmHg 39%
    13:00 +6°C° 0 mm 1 mps 748 mmHg 36%
    14:00 +7°C° 0 mm 1 mps 748 mmHg 34%
    15:00 +7°C° 0 mm 1 mps 748 mmHg 33%
    16:00 +8°C° 0 mm 1 mps 748 mmHg 32%
    17:00 +8°C° 0 mm 1 mps 748 mmHg 31%
    18:00 +8°C° 0 mm 1 mps 748 mmHg 35%
    19:00 +6°C° 0 mm 2 mps 748 mmHg 38%
    20:00 +6°C° 0 mm 2 mps 748 mmHg 42%
    21:00 +4°C° 0 mm 3 mps 748 mmHg 45%
    22:00 +4°C° 0 mm 3 mps 748 mmHg 47%
    23:00 +3°C° 0 mm 4 mps 749 mmHg 50%

    27 April, Saturday

    Time Temperature Precipitation Wind Pressure Humidity
    00:00 +3°C° 0 mm 4 mps 749 mmHg 52%
    01:00 +3°C° 0 mm 4 mps 749 mmHg 54%
    02:00 +3°C° 0 mm 4 mps 749 mmHg 55%
    03:00 +1°C° 0 mm 4 mps 750 mmHg 59%
    04:00 +1°C° 0 mm 3 mps 750 mmHg 63%
    05:00 +1°C° 0 mm 3 mps 750 mmHg 67%
    06:00 +2°C° 0 mm 3 mps 750 mmHg 65%
    07:00 +3°C° 0 mm 3 mps 751 mmHg 64%
    08:00 +4°C° 0 mm 3 mps 751 mmHg 62%
    09:00 +5°C° 0 mm 4 mps 751 mmHg 60%
    10:00 +6°C° 0 mm 4 mps 751 mmHg 57%
    11:00 +7°C° 0 mm 5 mps 751 mmHg 55%
    12:00 +7°C° 0 mm 6 mps 751 mmHg 53%
    13:00 +7°C° 0 mm 6 mps 750 mmHg 52%
    14:00 +8°C° 0 mm 7 mps 750 mmHg 50%
    15:00 +8°C° 0 mm 7 mps 750 mmHg 46%
    16:00 +8°C° 0 mm 7 mps 749 mmHg 41%
    17:00 +7°C° 0 mm 8 mps 749 mmHg 37%
    18:00 +8°C° 0 mm 7 mps 749 mmHg 36%
    19:00 +6°C° 0 mm 7 mps 748 mmHg 36%
    20:00 +7°C° 0 mm 6 mps 748 mmHg 36%
    21:00 +6°C° 0.1 mm 7 mps 747 mmHg 39%
    22:00 +6°C° 0.1 mm 8 mps 747 mmHg 42%
    23:00 +6°C° 0.1 mm 9 mps 746 mmHg 46%
    Show more